Central Point, OR

7:37 PM PDT on September 28, 2016 (GMT -0700)
Rogue Valley International-Medford

Weather History for KMFR - July, 2013

Change the Weather History Date:

Monday, July 1, 2013

  Actual Average Record
Temperature  
Mean Temperature 85 °F 71 °F  
Max Temperature 101 °F 87 °F 108 °F (1942)
Min Temperature 69 °F 55 °F 38 °F (1976)
Degree Days  
Heating Degree Days 0 1  
Month to date heating degree days 0 1  
Since 1 June heating degree days 35 55  
Since 1 July heating degree days 0 1  
Cooling Degree Days 20 6  
Month to date cooling degree days 20 6  
Year to date cooling degree days 201 152  
Since 1 June cooling degree days 166 114  
Growing Degree Days 36 (Base 50)    
Moisture  
Dew Point 58 °F    
Average Humidity 41    
Maximum Humidity 61    
Minimum Humidity 21    
Precipitation  
Precipitation 0.00 in 0.01 in 0.60 in (1964)
Month to date precipitation 0.00 0.01  
Year to date precipitation 4.13 9.47  
Snow  
Snow 0.00 in 0.00 in - ()
Month to date snowfall 0.0 0.0  
Since 1 July snowfall 0.0 0.0  
Snow Depth 0.00 in    
Sea Level Pressure  
Sea Level Pressure 29.90 in    
Wind  
Wind Speed 4 mph (WNW)    
Max Wind Speed 15 mph    
Max Gust Speed 20 mph    
Visibility 10 miles    
Events      
T = Trace of Precipitation, MM = Missing Value Source: NWS Daily Summary

Daily Weather History Graph

Daily Weather History Graph

Search for Another Location

Airport or City:

Trip Planner

Search our weather history database for the weather conditions in past years. The results will help you decide how hot, cold, wet, or windy it might be!

Date:

Astronomy

Jul. 01, 2013 Rise Set
Actual Time 5:38 AM PDT 8:52 PM PDT
Civil Twilight 5:03 AM PDT 9:26 PM PDT
Nautical Twilight 4:19 AM PDT 10:11 PM PDT
Astronomical Twilight 3:25 AM PDT 11:05 PM PDT
Moon 1:15 AM PDT (7/1) 3:09 PM PDT (7/1)
Length of Visible Light 16h 22m
Length of Day
15h 13m
Waning Crescent, 34% of the Moon is Illuminated
Jul 1
Waning Crescent
Jul 8
New
Jul 15
First Quarter
Jul 22
Full
Jul 29
Last Quarter

Hourly Weather History & Observations

Time (PDT) Temp. Heat Index Dew Point Humidity Pressure Visibility Wind Dir Wind Speed Gust Speed Precip Events Conditions
12:53 AM 78.1 °F - 57.9 °F 50% 29.88 in 10.0 mi Calm Calm - 0.01 in   Clear
1:53 AM 77.0 °F - 57.9 °F 52% 29.88 in 10.0 mi NW 3.5 mph - N/A   Clear
2:53 AM 77.0 °F - 57.0 °F 50% 29.88 in 10.0 mi West 4.6 mph - N/A   Clear
3:53 AM 75.0 °F - 55.9 °F 51% 29.88 in 10.0 mi WNW 4.6 mph - N/A   Clear
4:53 AM 72.0 °F - 57.0 °F 59% 29.90 in 10.0 mi Calm Calm - N/A   Clear
5:53 AM 71.1 °F - 57.0 °F 61% 29.91 in 10.0 mi Calm Calm - N/A   Clear
6:53 AM 71.1 °F - 57.0 °F 61% 29.93 in 10.0 mi Calm Calm - N/A   Clear
7:53 AM 73.9 °F - 57.0 °F 55% 29.93 in 10.0 mi NW 3.5 mph - N/A   Clear
8:53 AM 77.0 °F - 57.0 °F 50% 29.93 in 10.0 mi Calm Calm - N/A   Clear
9:53 AM 81.0 °F 81.1 °F 57.9 °F 45% 29.92 in 10.0 mi Variable 3.5 mph - N/A   Clear
10:53 AM 84.9 °F 84.2 °F 57.9 °F 40% 29.91 in 10.0 mi Calm Calm - N/A   Clear
11:53 AM 87.1 °F 86.5 °F 59.0 °F 39% 29.90 in 10.0 mi Calm Calm - N/A   Clear
12:53 PM 89.1 °F 88.8 °F 60.1 °F 38% 29.90 in 10.0 mi Calm Calm - N/A   Clear
1:53 PM 93.0 °F 92.7 °F 60.1 °F 33% 29.89 in 10.0 mi West 5.8 mph - N/A   Clear
2:53 PM 96.1 °F 96.4 °F 61.0 °F 31% 29.88 in 10.0 mi NW 8.1 mph - N/A   Clear
3:53 PM 99.0 °F 98.1 °F 57.0 °F 25% 29.88 in 10.0 mi NW 11.5 mph 19.6 mph N/A   Partly Cloudy
4:53 PM 100.9 °F 98.7 °F 53.1 °F 20% 29.87 in 10.0 mi WNW 11.5 mph - N/A   Clear
5:53 PM 100.9 °F 98.7 °F 53.1 °F 20% 29.86 in 10.0 mi West 8.1 mph 16.1 mph N/A   Partly Cloudy
6:53 PM 100.0 °F 98.8 °F 55.9 °F 23% 29.87 in 10.0 mi WNW 8.1 mph - N/A   Clear
7:53 PM 95.0 °F 95.2 °F 61.0 °F 32% 29.89 in 10.0 mi NNW 10.4 mph - N/A   Clear
8:53 PM 90.0 °F 89.7 °F 60.1 °F 37% 29.91 in 10.0 mi North 6.9 mph - N/A   Clear
9:53 PM 87.1 °F 87.0 °F 61.0 °F 41% 29.93 in 10.0 mi Calm Calm - N/A   Clear
10:53 PM 84.9 °F 85.0 °F 61.0 °F 44% 29.94 in 10.0 mi Calm Calm - N/A   Clear
11:53 PM 81.0 °F 81.9 °F 62.1 °F 52% 29.95 in 10.0 mi SSW 3.5 mph - N/A   Clear